Location: Huberhof
(49.2050°N, 7.4980°E)
Time: 05:35:05
(UTC+00:00)

Cosmos 2151 - Pass Details

Date: 29 October 2020
Orbit: 580 x 602 km, 82.5° (Epoch: 25 November)

Event Time Altitude Azimuth Distance (km) Brightness Sun altitude
Rises 17:31:46 0° 1° (N) 2,821 6.4 -13.3°
Reaches altitude 10° 17:34:23 10° 16° (NNE) 1,913 5.4 -13.7°
Enters shadow 17:37:30 22° 64° (ENE) 1,300 4.2 -14.2°
